| time (UTC) | temp F | wind direction | speed knots | gust knots | rain 1hr in | rain 24hr in | rain mn in | humidity % | barometer mb |
| 20260503060208 | 35 | 241 | 0.9 | 1.7 | 0.00 | 0.00 | 0.00 | 75 | 1017.5 |
| 20260503054655 | 35 | 218 | 0.0 | 0.9 | 0.00 | 0.00 | 0.00 | 76 | 1017.5 |
| 20260503054152 | 36 | 228 | 0.0 | 0.0 | 0.00 | 0.00 | 0.00 | 75 | 1017.6 |
| 20260503053650 | 36 | 231 | 0.0 | 0.0 | 0.00 | 0.00 | 0.00 | 74 | 1017.6 |
| 20260503053149 | 36 | 216 | 0.0 | 0.9 | 0.00 | 0.00 | 0.00 | 74 | 1017.5 |
| 20260503052645 | 37 | 224 | 0.0 | 1.7 | 0.00 | 0.00 | 0.00 | 73 | 1017.6 |
| 20260503052141 | 37 | 247 | 0.9 | 2.6 | 0.00 | 0.00 | 0.00 | 72 | 1017.5 |
| 20260503051636 | 37 | 228 | 0.0 | 1.7 | 0.00 | 0.00 | 0.00 | 72 | 1017.5 |
| 20260503051135 | 38 | 228 | 0.0 | 0.9 | 0.00 | 0.00 | 0.00 | 71 | 1017.5 |
| 20260503050631 | 38 | 251 | 1.7 | 2.6 | 0.00 | 0.00 | 0.00 | 70 | 1017.4 |
| 20260503050128 | 38 | 240 | 0.9 | 1.7 | 0.00 | 0.00 | 0.00 | 71 | 1017.3 |
| 20260503045625 | 38 | 250 | 1.7 | 2.6 | 0.00 | 0.00 | 0.00 | 70 | 1017.2 |
| 20260503045122 | 39 | 227 | 0.9 | 1.7 | 0.00 | 0.00 | 0.00 | 69 | 1017.3 |
| 20260503044619 | 39 | 238 | 1.7 | 2.6 | 0.00 | 0.00 | 0.00 | 69 | 1017.5 |
| 20260503044116 | 39 | 242 | 1.7 | 1.7 | 0.00 | 0.00 | 0.00 | 69 | 1017.3 |
| 20260503043613 | 39 | 265 | 0.9 | 3.5 | 0.00 | 0.00 | 0.00 | 68 | 1017.4 |
| 20260503043110 | 39 | 243 | 0.9 | 2.6 | 0.00 | 0.00 | 0.00 | 68 | 1017.4 |
| 20260503042606 | 39 | 238 | 0.9 | 1.7 | 0.00 | 0.00 | 0.00 | 67 | 1017.0 |
| 20260503042102 | 39 | 281 | 0.9 | 3.5 | 0.00 | 0.00 | 0.00 | 68 | 1017.1 |
| 20260503041559 | 39 | 240 | 0.9 | 6.1 | 0.00 | 0.00 | 0.00 | 67 | 1017.1 |
| 20260503041058 | 39 | 235 | 0.9 | 5.2 | 0.00 | 0.00 | 0.00 | 67 | 1017.1 |
| 20260503040555 | 39 | 221 | 0.9 | 2.6 | 0.00 | 0.00 | 0.00 | 67 | 1017.3 |
| 20260503040052 | 39 | 242 | 2.6 | 2.6 | 0.00 | 0.00 | 0.00 | 67 | 1016.8 |
| 20260503035548 | 40 | 246 | 3.5 | 3.5 | 0.00 | 0.00 | 0.00 | 67 | 1017.1 |
| 20260503035046 | 40 | 253 | 1.7 | 5.2 | 0.00 | 0.00 | 0.00 | 65 | 1017.1 |
| 20260503034542 | 40 | 264 | 1.7 | 2.6 | 0.00 | 0.00 | 0.00 | 66 | 1017.1 |
| 20260503034040 | 40 | 248 | 2.6 | 3.5 | 0.00 | 0.00 | 0.00 | 66 | 1017.1 |
| 20260503033537 | 40 | 251 | 2.6 | 2.6 | 0.00 | 0.00 | 0.00 | 66 | 1017.2 |
| 20260503033035 | 40 | 229 | 1.7 | 3.5 | 0.00 | 0.00 | 0.00 | 66 | 1017.0 |
| 20260503032533 | 40 | 224 | 0.9 | 3.5 | 0.00 | 0.00 | 0.00 | 65 | 1017.0 |
| 20260503032031 | 40 | 242 | 1.7 | 2.6 | 0.00 | 0.00 | 0.00 | 64 | 1016.8 |
| 20260503031528 | 40 | 235 | 0.0 | 1.7 | 0.00 | 0.00 | 0.00 | 65 | 1017.0 |
| 20260503031025 | 41 | 255 | 2.6 | 3.5 | 0.00 | 0.00 | 0.00 | 63 | 1016.8 |
| 20260503030521 | 40 | 310 | 1.7 | 5.2 | 0.00 | 0.00 | 0.00 | 63 | 1017.1 |
| 20260503030019 | 40 | 272 | 0.9 | 1.7 | 0.00 | 0.00 | 0.00 | 64 | 1017.0 |
| 20260503025515 | 41 | 195 | 0.0 | 1.7 | 0.00 | 0.00 | 0.00 | 63 | 1016.8 |
| 20260503025013 | 40 | 254 | 2.6 | 3.5 | 0.00 | 0.00 | 0.00 | 63 | 1017.1 |
| 20260503024509 | 41 | 218 | 0.0 | 0.9 | 0.00 | 0.00 | 0.00 | 64 | 1017.0 |
| 20260503024006 | 41 | 247 | 0.9 | 2.6 | 0.00 | 0.00 | 0.00 | 63 | 1017.1 |
| 20260503023503 | 41 | 208 | 0.9 | 1.7 | 0.00 | 0.00 | 0.00 | 63 | 1017.2 |
| 20260503023000 | 41 | 228 | 0.9 | 2.6 | 0.00 | 0.00 | 0.00 | 62 | 1017.2 |
| 20260503022455 | 41 | 310 | 2.6 | 5.2 | 0.00 | 0.00 | 0.00 | 62 | 1017.1 |
| 20260503021951 | 41 | 30 | 1.7 | 5.2 | 0.00 | 0.00 | 0.00 | 62 | 1017.1 |
| 20260503021447 | 41 | 280 | 0.9 | 2.6 | 0.00 | 0.00 | 0.00 | 63 | 1017.2 |
| 20260503020945 | 41 | 272 | 2.6 | 3.5 | 0.00 | 0.00 | 0.00 | 63 | 1017.0 |
| 20260503020442 | 41 | 248 | 0.9 | 1.7 | 0.00 | 0.00 | 0.00 | 62 | 1016.8 |
| 20260503015939 | 41 | 229 | 0.0 | 0.9 | 0.00 | 0.00 | 0.00 | 63 | 1016.8 |
| 20260503015436 | 41 | 234 | 0.9 | 2.6 | 0.00 | 0.00 | 0.00 | 62 | 1016.7 |
| 20260503014931 | 41 | 308 | 1.7 | 2.6 | 0.00 | 0.00 | 0.00 | 63 | 1017.0 |
| 20260503014430 | 41 | 213 | 0.9 | 2.6 | 0.00 | 0.00 | 0.00 | 63 | 1016.6 |
| 20260503013928 | 41 | 273 | 0.9 | 3.5 | 0.00 | 0.00 | 0.00 | 62 | 1017.0 |
| 20260503013425 | 42 | 247 | 0.9 | 5.2 | 0.00 | 0.00 | 0.00 | 61 | 1016.7 |
| 20260503012922 | 41 | 256 | 1.7 | 2.6 | 0.00 | 0.00 | 0.00 | 63 | 1016.7 |
| 20260503012420 | 41 | 237 | 1.7 | 6.1 | 0.00 | 0.00 | 0.00 | 61 | 1016.7 |
| 20260503011915 | 41 | 222 | 1.7 | 2.6 | 0.00 | 0.00 | 0.00 | 63 | 1016.6 |
| 20260503011412 | 41 | 258 | 0.9 | 2.6 | 0.00 | 0.00 | 0.00 | 64 | 1016.6 |
| 20260503010909 | 41 | 238 | 0.9 | 1.7 | 0.00 | 0.00 | 0.00 | 63 | 1016.6 |
| 20260503010405 | 41 | 246 | 0.9 | 0.9 | 0.00 | 0.00 | 0.00 | 63 | 1016.5 |
| 20260503005902 | 42 | 239 | 0.0 | 0.9 | 0.00 | 0.00 | 0.00 | 61 | 1016.6 |
| 20260503005400 | 42 | 251 | 0.9 | 3.5 | 0.00 | 0.00 | 0.00 | 59 | 1016.3 |
| 20260503004855 | 43 | 231 | 0.0 | 2.6 | 0.00 | 0.00 | 0.00 | 58 | 1016.4 |
| 20260503004353 | 43 | 229 | 0.9 | 1.7 | 0.00 | 0.00 | 0.00 | 58 | 1016.2 |
| 20260503003851 | 43 | 252 | 1.7 | 3.5 | 0.00 | 0.00 | 0.00 | 57 | 1016.3 |
| 20260503003348 | 43 | 241 | 0.9 | 0.9 | 0.00 | 0.00 | 0.00 | 56 | 1016.5 |
| 20260503002845 | 44 | 228 | 1.7 | 3.5 | 0.00 | 0.00 | 0.00 | 55 | 1016.2 |
| 20260503002343 | 44 | 263 | 2.6 | 5.2 | 0.00 | 0.00 | 0.00 | 55 | 1016.1 |
| 20260503001839 | 44 | 343 | 1.7 | 3.5 | 0.00 | 0.00 | 0.00 | 56 | 1016.2 |
| 20260503001335 | 44 | 278 | 0.0 | 1.7 | 0.00 | 0.00 | 0.00 | 56 | 1016.1 |
| 20260503000833 | 44 | 272 | 1.7 | 3.5 | 0.00 | 0.00 | 0.00 | 55 | 1015.9 |
| 20260503000330 | 45 | 238 | 1.7 | 2.6 | 0.00 | 0.00 | 0.00 | 55 | 1016.1 |
| 20260502235826 | 45 | 234 | 2.6 | 5.2 | 0.00 | 0.00 | 0.00 | 54 | 1016.0 |
| 20260502235323 | 45 | 222 | 0.9 | 2.6 | 0.00 | 0.00 | 0.00 | 56 | 1015.9 |
| 20260502234820 | 45 | 312 | 0.0 | 1.7 | 0.00 | 0.00 | 0.00 | 55 | 1016.0 |
| 20260502234317 | 45 | 308 | 3.5 | 6.1 | 0.00 | 0.00 | 0.00 | 53 | 1015.8 |
| 20260502233814 | 46 | 330 | 1.7 | 5.2 | 0.00 | 0.00 | 0.00 | 54 | 1015.8 |
| 20260502233310 | 46 | 306 | 1.7 | 8.7 | 0.00 | 0.00 | 0.00 | 53 | 1015.9 |
| 20260502232807 | 46 | 289 | 2.6 | 3.5 | 0.00 | 0.00 | 0.00 | 52 | 1015.7 |
| 20260502232304 | 47 | 289 | 1.7 | 3.5 | 0.00 | 0.00 | 0.00 | 51 | 1015.8 |
| 20260502231800 | 46 | 301 | 0.9 | 7.0 | 0.00 | 0.00 | 0.00 | 53 | 1015.8 |
| 20260502231258 | 46 | 272 | 2.6 | 3.5 | 0.00 | 0.00 | 0.00 | 55 | 1016.0 |
| 20260502230756 | 46 | 223 | 0.0 | 2.6 | 0.00 | 0.00 | 0.00 | 54 | 1015.6 |
| 20260502230254 | 46 | 231 | 3.5 | 7.0 | 0.00 | 0.00 | 0.00 | 53 | 1015.9 |
| 20260502225750 | 47 | 265 | 2.6 | 7.0 | 0.00 | 0.00 | 0.00 | 54 | 1015.4 |
| 20260502225247 | 47 | 293 | 1.7 | 6.1 | 0.00 | 0.00 | 0.00 | 51 | 1015.6 |
| 20260502224743 | 46 | 291 | 1.7 | 5.2 | 0.00 | 0.00 | 0.00 | 53 | 1015.7 |
| 20260502224240 | 46 | 250 | 0.9 | 5.2 | 0.00 | 0.00 | 0.00 | 54 | 1015.7 |
| 20260502223737 | 46 | 263 | 1.7 | 5.2 | 0.00 | 0.00 | 0.00 | 53 | 1015.6 |
| 20260502223236 | 47 | 311 | 10.4 | 13.0 | 0.00 | 0.00 | 0.00 | 51 | 1015.6 |
| 20260502222733 | 49 | 5 | 6.1 | 11.3 | 0.00 | 0.00 | 0.00 | 49 | 1015.6 |
| 20260502222229 | 47 | 337 | 0.9 | 7.0 | 0.00 | 0.00 | 0.00 | 52 | 1015.6 |
| 20260502221725 | 47 | 4 | 1.7 | 6.1 | 0.00 | 0.00 | 0.00 | 53 | 1015.6 |
| 20260502221222 | 47 | 204 | 0.9 | 5.2 | 0.00 | 0.00 | 0.00 | 52 | 1015.3 |
| 20260502220718 | 47 | 61 | 1.7 | 5.2 | 0.00 | 0.00 | 0.00 | 52 | 1015.7 |
| 20260502220215 | 47 | 261 | 1.7 | 5.2 | 0.00 | 0.00 | 0.00 | 53 | 1015.4 |
| 20260502215712 | 48 | 267 | 1.7 | 5.2 | 0.00 | 0.00 | 0.00 | 51 | 1015.1 |
| 20260502215209 | 49 | 261 | 0.9 | 1.7 | 0.00 | 0.00 | 0.00 | 49 | 1015.2 |
| 20260502214706 | 48 | 274 | 2.6 | 5.2 | 0.00 | 0.00 | 0.00 | 50 | 1015.2 |
| 20260502214203 | 47 | 276 | 6.1 | 7.8 | 0.00 | 0.00 | 0.00 | 50 | 1015.2 |
| 20260502213700 | 48 | 322 | 5.2 | 7.0 | 0.00 | 0.00 | 0.00 | 50 | 1015.2 |
| 20260502213157 | 48 | 236 | 2.6 | 3.5 | 0.00 | 0.00 | 0.00 | 50 | 1015.0 |
| 20260502212656 | 49 | 244 | 0.9 | 2.6 | 0.00 | 0.00 | 0.00 | 49 | 1015.0 |
| 20260502212154 | 49 | 47 | 0.9 | 2.6 | 0.00 | 0.00 | 0.00 | 50 | 1014.9 |
| 20260502211649 | 49 | 279 | 2.6 | 3.5 | 0.00 | 0.00 | 0.00 | 49 | 1014.9 |
| 20260502211146 | 48 | 245 | 1.7 | 5.2 | 0.00 | 0.00 | 0.00 | 50 | 1015.0 |
| 20260502210644 | 48 | 224 | 2.6 | 6.1 | 0.00 | 0.00 | 0.00 | 50 | 1015.0 |
| 20260502210141 | 48 | 256 | 5.2 | 11.3 | 0.00 | 0.00 | 0.00 | 51 | 1014.9 |
| 20260502205637 | 48 | 115 | 1.7 | 6.1 | 0.00 | 0.00 | 0.00 | 56 | 1015.3 |
| 20260502205134 | 48 | 213 | 2.6 | 3.5 | 0.00 | 0.00 | 0.00 | 53 | 1015.2 |
| 20260502204631 | 47 | 243 | 5.2 | 6.1 | 0.00 | 0.00 | 0.00 | 52 | 1015.3 |
| 20260502204129 | 47 | 257 | 2.6 | 7.0 | 0.00 | 0.00 | 0.00 | 53 | 1015.3 |
| 20260502203626 | 47 | 246 | 4.3 | 6.1 | 0.00 | 0.00 | 0.00 | 51 | 1015.3 |
| 20260502203125 | 47 | 196 | 1.7 | 6.1 | 0.00 | 0.00 | 0.00 | 54 | 1015.2 |
| 20260502202624 | 47 | 358 | 1.7 | 12.2 | 0.00 | 0.00 | 0.00 | 52 | 1015.4 |
| 20260502202123 | 47 | 239 | 5.2 | 8.7 | 0.00 | 0.00 | 0.00 | 52 | 1015.4 |
| 20260502201619 | 47 | 221 | 0.9 | 5.2 | 0.00 | 0.00 | 0.00 | 51 | 1015.4 |
| 20260502201116 | 47 | 306 | 3.5 | 6.1 | 0.00 | 0.00 | 0.00 | 51 | 1015.3 |
| 20260502200611 | 48 | 329 | 3.5 | 6.1 | 0.00 | 0.00 | 0.00 | 50 | 1015.3 |
| 20260502200109 | 49 | 349 | 3.5 | 6.1 | 0.00 | 0.00 | 0.00 | 51 | 1015.2 |
| 20260502195608 | 49 | 236 | 3.5 | 5.2 | 0.00 | 0.00 | 0.00 | 50 | 1015.3 |
| 20260502195103 | 48 | 242 | 2.6 | 8.7 | 0.00 | 0.00 | 0.00 | 49 | 1015.2 |
| 20260502194600 | 49 | 235 | 3.5 | 6.1 | 0.00 | 0.00 | 0.00 | 48 | 1015.3 |
| 20260502194056 | 49 | 222 | 4.3 | 8.7 | 0.00 | 0.00 | 0.00 | 49 | 1014.9 |
| 20260502193553 | 49 | 325 | 5.2 | 9.6 | 0.00 | 0.00 | 0.00 | 48 | 1015.3 |
| 20260502193050 | 50 | 342 | 7.8 | 9.6 | 0.00 | 0.00 | 0.00 | 47 | 1015.3 |
| 20260502192545 | 51 | 320 | 3.5 | 13.0 | 0.00 | 0.00 | 0.00 | 48 | 1015.2 |
| 20260502192043 | 51 | 280 | 1.7 | 5.2 | 0.00 | 0.00 | 0.00 | 47 | 1015.3 |
| 20260502191540 | 51 | 244 | 5.2 | 11.3 | 0.00 | 0.00 | 0.00 | 47 | 1015.1 |
| 20260502191038 | 50 | 321 | 3.5 | 3.5 | 0.00 | 0.00 | 0.00 | 49 | 1015.3 |
| 20260502190535 | 50 | 255 | 1.7 | 8.7 | 0.00 | 0.00 | 0.00 | 47 | 1015.3 |
| 20260502190032 | 53 | 341 | 5.2 | 11.3 | 0.00 | 0.00 | 0.00 | 44 | 1015.3 |
| 20260502185526 | 51 | 342 | 2.6 | 12.2 | 0.00 | 0.00 | 0.00 | 45 | 1015.1 |
| 20260502185024 | 51 | 328 | 4.3 | 7.0 | 0.00 | 0.00 | 0.00 | 46 | 1015.3 |
| 20260502184519 | 50 | 302 | 2.6 | 7.0 | 0.00 | 0.00 | 0.00 | 47 | 1015.3 |
| 20260502184016 | 49 | 245 | 3.5 | 7.8 | 0.00 | 0.00 | 0.00 | 49 | 1015.4 |
| 20260502183512 | 49 | 323 | 0.9 | 2.6 | 0.00 | 0.00 | 0.00 | 49 | 1015.6 |
| 20260502183008 | 49 | 11 | 1.7 | 8.7 | 0.00 | 0.00 | 0.00 | 50 | 1015.4 |
| 20260502182503 | 49 | 292 | 1.7 | 7.8 | 0.00 | 0.00 | 0.00 | 46 | 1015.6 |
| 20260502181959 | 50 | 320 | 4.3 | 9.6 | 0.00 | 0.00 | 0.00 | 46 | 1015.4 |
| 20260502181457 | 50 | 265 | 2.6 | 3.5 | 0.00 | 0.00 | 0.00 | 47 | 1015.3 |
| 20260502180956 | 50 | 351 | 1.7 | 3.5 | 0.00 | 0.00 | 0.00 | 48 | 1015.7 |
| 20260502180453 | 50 | 217 | 3.5 | 7.8 | 0.00 | 0.00 | 0.00 | 48 | 1015.7 |
| 20260502170412 | 51 | 333 | 7.0 | 8.7 | 0.00 | 0.00 | 0.00 | 45 | 1015.7 |
| 20260502163855 | 51 | 181 | 0.9 | 3.5 | 0.00 | 0.00 | 0.00 | 49 | 1016.0 |
| 20260502163351 | 51 | 333 | 5.2 | 9.6 | 0.00 | 0.00 | 0.00 | 44 | 1016.0 |
| 20260502162849 | 51 | 279 | 1.7 | 6.1 | 0.00 | 0.00 | 0.00 | 47 | 1015.9 |
| 20260502162345 | 50 | 275 | 6.1 | 7.8 | 0.00 | 0.00 | 0.00 | 44 | 1015.9 |
| 20260502161843 | 51 | 23 | 2.6 | 6.1 | 0.00 | 0.00 | 0.00 | 47 | 1016.0 |
| 20260502161338 | 51 | 247 | 4.3 | 7.8 | 0.00 | 0.00 | 0.00 | 46 | 1016.1 |
| 20260502160837 | 49 | 231 | 2.6 | 3.5 | 0.00 | 0.00 | 0.00 | 48 | 1016.3 |
| 20260502160335 | 49 | 325 | 2.6 | 5.2 | 0.00 | 0.00 | 0.00 | 47 | 1016.5 |
| 20260502152305 | 50 | 262 | 4.3 | 5.2 | 0.00 | 0.00 | 0.00 | 47 | 1016.8 |
| 20260502151802 | 50 | 288 | 1.7 | 7.0 | 0.00 | 0.00 | 0.00 | 48 | 1016.5 |
| 20260502151258 | 51 | 277 | 2.6 | 3.5 | 0.00 | 0.00 | 0.00 | 47 | 1016.3 |
| 20260502150757 | 49 | 344 | 3.5 | 7.0 | 0.00 | 0.00 | 0.00 | 49 | 1016.4 |
| 20260502150253 | 49 | 70 | 3.5 | 7.8 | 0.00 | 0.00 | 0.00 | 49 | 1016.5 |
| 20260502130642 | 41 | 256 | 0.9 | 5.2 | 0.00 | 0.00 | 0.00 | 71 | 1016.6 |
| 20260502130139 | 42 | 323 | 3.5 | 3.5 | 0.00 | 0.00 | 0.00 | 70 | 1016.7 |
| 20260502123625 | 40 | 14 | 0.9 | 3.5 | 0.00 | 0.00 | 0.00 | 72 | 1016.4 |
| 20260502123121 | 40 | 240 | 2.6 | 3.5 | 0.00 | 0.00 | 0.00 | 73 | 1016.5 |
| 20260502122618 | 40 | 317 | 0.9 | 2.6 | 0.00 | 0.00 | 0.00 | 74 | 1016.6 |
| 20260502122114 | 40 | 238 | 3.5 | 5.2 | 0.00 | 0.00 | 0.00 | 73 | 1016.7 |
| 20260502121613 | 40 | 248 | 1.7 | 3.5 | 0.00 | 0.00 | 0.00 | 74 | 1016.8 |
| 20260502121110 | 40 | 3 | 1.7 | 3.5 | 0.00 | 0.00 | 0.00 | 75 | 1016.7 |
| 20260502120606 | 40 | 300 | 1.7 | 1.7 | 0.00 | 0.00 | 0.00 | 76 | 1016.8 |
| 20260502115601 | 39 | 238 | 0.9 | 2.6 | 0.00 | 0.00 | 0.00 | 77 | 1016.7 |
| 20260502115102 | 39 | 213 | 0.0 | 0.9 | 0.00 | 0.00 | 0.00 | 78 | 1016.7 |
| 20260502114558 | 39 | 251 | 1.7 | 2.6 | 0.00 | 0.00 | 0.00 | 78 | 1016.6 |
| 20260502114055 | 39 | 250 | 1.7 | 2.6 | 0.00 | 0.00 | 0.00 | 78 | 1016.7 |
| 20260502113553 | 38 | 264 | 0.9 | 1.7 | 0.00 | 0.00 | 0.00 | 79 | 1016.6 |
| 20260502113051 | 38 | 238 | 0.0 | 0.9 | 0.00 | 0.00 | 0.00 | 80 | 1016.6 |
| 20260502112549 | 38 | 239 | 0.0 | 0.9 | 0.00 | 0.00 | 0.00 | 80 | 1016.3 |
| 20260502112046 | 38 | 220 | 0.9 | 1.7 | 0.00 | 0.00 | 0.00 | 81 | 1016.5 |
| 20260502111543 | 37 | 233 | 0.0 | 0.0 | 0.00 | 0.00 | 0.00 | 82 | 1016.5 |
| 20260502111041 | 37 | 232 | 0.0 | 0.0 | 0.00 | 0.00 | 0.00 | 82 | 1016.3 |
| 20260502110538 | 37 | 233 | 0.0 | 0.9 | 0.00 | 0.00 | 0.00 | 82 | 1016.5 |
| 20260502110036 | 36 | 252 | 0.0 | 0.9 | 0.00 | 0.00 | 0.00 | 81 | 1016.4 |
| 20260502105533 | 36 | 219 | 0.0 | 0.0 | 0.00 | 0.00 | 0.00 | 81 | 1016.4 |
| 20260502105030 | 37 | 219 | 0.0 | 0.0 | 0.00 | 0.00 | 0.00 | 80 | 1016.5 |
| 20260502104527 | 37 | 219 | 0.0 | 0.0 | 0.00 | 0.00 | 0.00 | 79 | 1016.4 |
| 20260502104025 | 37 | 248 | 0.0 | 0.9 | 0.00 | 0.00 | 0.00 | 79 | 1016.5 |
| 20260502103522 | 37 | 269 | 0.9 | 0.9 | 0.00 | 0.00 | 0.00 | 79 | 1016.4 |
| 20260502103020 | 37 | 240 | 0.0 | 0.9 | 0.00 | 0.00 | 0.00 | 79 | 1016.4 |
| 20260502102516 | 37 | 240 | 0.0 | 1.7 | 0.00 | 0.00 | 0.00 | 78 | 1016.5 |
| 20260502102014 | 37 | 165 | 0.0 | 0.0 | 0.00 | 0.00 | 0.00 | 78 | 1016.7 |
| 20260502101511 | 37 | 195 | 0.0 | 0.9 | 0.00 | 0.00 | 0.00 | 78 | 1016.5 |
| 20260502101010 | 37 | 253 | 0.9 | 2.6 | 0.00 | 0.00 | 0.00 | 78 | 1016.5 |
| 20260502100508 | 37 | 215 | 0.0 | 0.0 | 0.00 | 0.00 | 0.00 | 78 | 1016.5 |
| 20260502091442 | 39 | 229 | 0.0 | 0.0 | 0.00 | 0.00 | 0.00 | 72 | 1016.4 |
| 20260502090939 | 39 | 170 | 0.0 | 0.9 | 0.00 | 0.00 | 0.00 | 71 | 1016.4 |
| 20260502090436 | 40 | 223 | 0.9 | 0.9 | 0.00 | 0.00 | 0.00 | 70 | 1016.7 |
| 20260502071331 | 43 | 318 | 0.9 | 1.7 | 0.00 | 0.00 | 0.00 | 62 | 1016.2 |
| 20260502070829 | 43 | 293 | 0.9 | 1.7 | 0.00 | 0.00 | 0.00 | 64 | 1016.2 |
| 20260502070326 | 43 | 299 | 2.6 | 5.2 | 0.00 | 0.00 | 0.00 | 62 | 1016.2 |
| 20260502065825 | 43 | 262 | 3.5 | 6.1 | 0.00 | 0.00 | 0.00 | 61 | 1016.3 |
| 20260502065323 | 43 | 306 | 3.5 | 6.1 | 0.00 | 0.00 | 0.00 | 63 | 1016.4 |
| 20260502064820 | 43 | 266 | 1.7 | 2.6 | 0.00 | 0.00 | 0.00 | 66 | 1016.4 |
| 20260502064318 | 43 | 249 | 1.7 | 2.6 | 0.00 | 0.00 | 0.00 | 67 | 1016.2 |
| 20260502063815 | 43 | 310 | 2.6 | 3.5 | 0.00 | 0.00 | 0.00 | 68 | 1016.5 |
| 20260502063313 | 43 | 291 | 1.7 | 3.5 | 0.00 | 0.00 | 0.00 | 67 | 1016.4 |